Torna al catalogo

OPS 4682 DEB

AttivoPO
NORAD 38425·DEBRIS·🇺🇸 United States

Lanciato Apr 3, 1965 da Vandenberg Space Force Base

Loading…

Prossimi Passaggi (prossime 24 ore)

TLE

AggiornatoSource: Space-Track

Epoca: Sep 14, 2026, 07:06 UTC

1 38425U 65027EE  26257.29595578  .00000187  00000-0  63875-3 0  9992
2 38425  90.2519   9.7125 0034387 356.2794   3.8065 12.95256038674094

Traccia OPS 4682 DEB in tempo reale con AllMySat

Download on the App Store